Location: Newark
(39.0622°N, 106.5590°E)
Time: 22:35:25
(UTC+00:00)

Explorer 7 - Visible Passes

Search period start: 22 January 2020 00:00
Search period end: 01 February 2020 00:00
Orbit: 485 x 679 km, 50.3° (Epoch: 22 January)

Date Brightness Start Highest point End Pass type
(mag) Time Alt. Az. Time Alt. Az. Time Alt. Az.
22 Jan 9.8 21:07:13 13° ENE 21:07:13 13° ENE 21:07:54 10° ENE visible
22 Jan 6.7 22:43:33 32° WNW 22:45:19 77° SW 22:49:34 10° SE visible
23 Jan 9.6 21:12:13 17° E 21:12:13 17° E 21:13:20 10° E visible
23 Jan 7.2 22:48:33 28° W 22:50:12 45° SW 22:54:14 10° SSE visible
24 Jan 9.4 21:17:17 19° E 21:17:17 19° E 21:18:38 10° ESE visible
24 Jan 8.0 22:53:38 22° WSW 22:55:01 26° SW 22:58:34 10° SSE visible
25 Jan 9.2 21:22:27 19° ESE 21:22:27 19° ESE 21:23:44 10° ESE visible
25 Jan 8.6 22:58:48 15° WSW 22:59:47 16° SW 23:02:18 10° SSW visible
26 Jan 9.3 21:27:41 16° SE 21:27:41 16° SE 21:28:36 10° SE visible
27 Jan 9.6 21:33:01 11° SSE 21:33:01 11° SSE 21:33:11 10° SSE visible
30 Jan 9.1 11:37:50 10° SSE 11:38:14 11° SE 11:38:14 11° SE visible
31 Jan 8.3 11:41:01 10° S 11:43:37 20° SE 11:43:37 20° SE visible
